Location: Augsburg
(48.3836°N, 10.8929°E)
Time: 00:23:48
(UTC+01:00)

ISS - Pass Details

Date: 01 December 2021
Orbit: 413 x 422 km, 51.6° (Epoch: 24 January)

Event Time Altitude Azimuth Distance (km) Brightness Sun altitude
Rises 18:35:52 0° 290° (WNW) 2,385 1.1 -21.1°
Reaches altitude 10° 18:37:59 10° 293° (WNW) 1,516 -0.1 -21.4°
Enters shadow 18:40:43 53° 312° (NW) 529 -3.1 -21.9°
